| time (UTC) | temp C | wind direction | speed KPH | gust KPH | rain 1hr cm | rain 24hr cm | rain mn cm | humidity % | barometer mb |
| 20260508152648 | 10 | 100 | 1.6 | 4.8 | 0.00 | 0.00 | 0.00 | 65 | 1018.8 |
| 20260508151616 | 8 | 95 | 4.8 | 6.4 | 0.00 | 0.00 | 0.00 | 65 | 1018.8 |
| 20260508150625 | 8 | 51 | 3.2 | 6.4 | 0.00 | 0.00 | 0.00 | 67 | 1018.8 |
| 20260508145619 | 8 | 44 | 3.2 | 6.4 | 0.00 | 0.00 | 0.00 | 68 | 1018.8 |
| 20260508144625 | 7 | 44 | 3.2 | 4.8 | 0.00 | 0.00 | 0.00 | 69 | 1018.9 |
| 20260508143650 | 7 | 44 | 1.6 | 4.8 | 0.00 | 0.00 | 0.00 | 73 | 1018.8 |
| 20260508142615 | 6 | 44 | 1.6 | 4.8 | 0.00 | 0.00 | 0.00 | 74 | 1018.7 |
| 20260508141643 | 5 | 44 | 1.6 | 3.2 | 0.00 | 0.00 | 0.00 | 74 | 1018.7 |
| 20260508140630 | 5 | 44 | 0.0 | 1.6 | 0.00 | 0.00 | 0.00 | 78 | 1018.7 |
| 20260508135620 | 4 | 44 | 3.2 | 4.8 | 0.00 | 0.00 | 0.00 | 80 | 1018.8 |
| 20260508134629 | 3 | 44 | 1.6 | 4.8 | 0.00 | 0.00 | 0.00 | 81 | 1018.7 |
| 20260508133616 | 2 | 44 | 0.0 | 0.0 | 0.00 | 0.00 | 0.00 | 84 | 1018.6 |
| 20260508132627 | 2 | 44 | 0.0 | 3.2 | 0.00 | 0.00 | 0.00 | 83 | 1018.5 |
| 20260508131612 | 1 | 44 | 1.6 | 3.2 | 0.00 | 0.00 | 0.00 | 84 | 1018.3 |
| 20260508130618 | 1 | 44 | 1.6 | 6.4 | 0.00 | 0.00 | 0.00 | 84 | 1018.2 |
| 20260508125612 | 0 | 290 | 1.6 | 4.8 | 0.00 | 0.00 | 0.00 | 82 | 1018.1 |
| 20260508124616 | 0 | 290 | 3.2 | 4.8 | 0.00 | 0.00 | 0.00 | 81 | 1018.0 |
| 20260508123618 | 0 | 263 | 3.2 | 6.4 | 0.00 | 0.00 | 0.00 | 80 | 1017.8 |
| 20260508122627 | 1 | 263 | 3.2 | 4.8 | 0.00 | 0.00 | 0.00 | 79 | 1017.8 |
| 20260508121629 | 1 | 263 | 4.8 | 4.8 | 0.00 | 0.00 | 0.00 | 79 | 1017.8 |
| 20260508120614 | 1 | 263 | 1.6 | 3.2 | 0.00 | 0.00 | 0.00 | 78 | 1017.7 |
| 20260508115626 | 1 | 263 | 1.6 | 9.7 | 0.00 | 0.00 | 0.00 | 77 | 1017.6 |
| 20260508114614 | 2 | 263 | 4.8 | 6.4 | 0.00 | 0.00 | 0.00 | 73 | 1017.4 |
| 20260508113644 | 2 | 161 | 0.0 | 3.2 | 0.00 | 0.00 | 0.00 | 73 | 1017.4 |
| 20260508112630 | 3 | 161 | 0.0 | 4.8 | 0.00 | 0.00 | 0.00 | 70 | 1017.4 |
| 20260508111614 | 3 | 161 | 0.0 | 4.8 | 0.00 | 0.00 | 0.00 | 70 | 1017.4 |
| 20260508110619 | 4 | 161 | 1.6 | 11.3 | 0.00 | 0.00 | 0.00 | 71 | 1017.4 |
| 20260508105619 | 3 | 209 | 4.8 | 8.0 | 0.00 | 0.00 | 0.00 | 73 | 1017.4 |
| 20260508104623 | 4 | 247 | 4.8 | 9.7 | 0.00 | 0.00 | 0.00 | 72 | 1017.4 |
| 20260508103631 | 4 | 166 | 9.7 | 12.9 | 0.00 | 0.00 | 0.00 | 73 | 1017.5 |
| 20260508102640 | 4 | 182 | 9.7 | 12.9 | 0.00 | 0.00 | 0.00 | 74 | 1017.4 |
| 20260508101628 | 3 | 185 | 8.0 | 11.3 | 0.00 | 0.00 | 0.00 | 74 | 1017.3 |
| 20260508100612 | 4 | 235 | 6.4 | 9.7 | 0.00 | 0.00 | 0.00 | 72 | 1017.3 |
| 20260508095624 | 4 | 191 | 11.3 | 16.1 | 0.00 | 0.00 | 0.00 | 73 | 1017.2 |
| 20260508094631 | 4 | 184 | 12.9 | 17.7 | 0.00 | 0.00 | 0.00 | 73 | 1017.1 |
| 20260508093637 | 3 | 219 | 6.4 | 11.3 | 0.00 | 0.00 | 0.00 | 72 | 1017.1 |
| 20260508092625 | 4 | 153 | 3.2 | 14.5 | 0.00 | 0.00 | 0.00 | 71 | 1016.9 |
| 20260508091614 | 4 | 204 | 9.7 | 12.9 | 0.00 | 0.00 | 0.00 | 69 | 1016.9 |
| 20260508090624 | 5 | 190 | 14.5 | 19.3 | 0.00 | 0.00 | 0.00 | 68 | 1016.8 |
| 20260508085618 | 4 | 240 | 6.4 | 11.3 | 0.00 | 0.00 | 0.00 | 68 | 1017.0 |
| 20260508084627 | 4 | 192 | 12.9 | 17.7 | 0.00 | 0.00 | 0.00 | 71 | 1017.0 |
| 20260508083652 | 5 | 225 | 6.4 | 12.9 | 0.00 | 0.00 | 0.00 | 70 | 1017.2 |
| 20260508082620 | 5 | 213 | 6.4 | 11.3 | 0.00 | 0.00 | 0.00 | 71 | 1017.3 |
| 20260508081648 | 5 | 234 | 6.4 | 14.5 | 0.00 | 0.00 | 0.00 | 71 | 1017.3 |
| 20260508080620 | 5 | 171 | 8.0 | 12.9 | 0.00 | 0.00 | 0.00 | 73 | 1017.4 |
| 20260508075613 | 5 | 234 | 4.8 | 9.7 | 0.00 | 0.00 | 0.00 | 72 | 1017.5 |
| 20260508074622 | 5 | 189 | 4.8 | 8.0 | 0.00 | 0.00 | 0.00 | 73 | 1017.5 |
| 20260508073649 | 5 | 242 | 4.8 | 8.0 | 0.00 | 0.00 | 0.00 | 72 | 1017.6 |
| 20260508072613 | 5 | 188 | 4.8 | 8.0 | 0.00 | 0.00 | 0.00 | 74 | 1017.6 |
| 20260508071619 | 5 | 173 | 8.0 | 11.3 | 0.00 | 0.00 | 0.00 | 72 | 1017.6 |
| 20260508070627 | 5 | 228 | 4.8 | 12.9 | 0.00 | 0.00 | 0.00 | 72 | 1017.6 |
| 20260508065620 | 5 | 205 | 6.4 | 8.0 | 0.00 | 0.00 | 0.00 | 73 | 1017.6 |
| 20260508064624 | 5 | 205 | 4.8 | 6.4 | 0.00 | 0.00 | 0.00 | 72 | 1017.6 |
| 20260508063635 | 6 | 202 | 4.8 | 8.0 | 0.00 | 0.00 | 0.00 | 71 | 1017.5 |
| 20260508062622 | 6 | 244 | 6.4 | 8.0 | 0.00 | 0.00 | 0.00 | 72 | 1017.5 |
| 20260508061629 | 6 | 211 | 4.8 | 6.4 | 0.00 | 0.00 | 0.00 | 72 | 1017.4 |
| 20260508060631 | 6 | 211 | 4.8 | 8.0 | 0.00 | 0.00 | 0.00 | 69 | 1017.4 |
| 20260508055644 | 7 | 219 | 6.4 | 11.3 | 0.00 | 0.00 | 0.00 | 68 | 1017.4 |
| 20260508054614 | 7 | 215 | 4.8 | 9.7 | 0.00 | 0.00 | 0.00 | 68 | 1017.5 |
| 20260508053623 | 7 | 187 | 4.8 | 11.3 | 0.00 | 0.00 | 0.00 | 67 | 1017.4 |
| 20260508052625 | 7 | 219 | 4.8 | 8.0 | 0.00 | 0.00 | 0.00 | 67 | 1017.5 |
| 20260508051633 | 7 | 205 | 6.4 | 9.7 | 0.00 | 0.00 | 0.00 | 67 | 1017.4 |
| 20260508050636 | 7 | 202 | 4.8 | 8.0 | 0.00 | 0.00 | 0.00 | 69 | 1017.4 |
| 20260508045614 | 7 | 170 | 6.4 | 9.7 | 0.00 | 0.00 | 0.00 | 68 | 1017.4 |
| 20260508044617 | 7 | 208 | 8.0 | 12.9 | 0.00 | 0.00 | 0.00 | 69 | 1017.3 |
| 20260508043626 | 7 | 188 | 6.4 | 9.7 | 0.00 | 0.00 | 0.00 | 70 | 1017.3 |
| 20260508042615 | 7 | 241 | 4.8 | 11.3 | 0.00 | 0.00 | 0.00 | 70 | 1017.3 |
| 20260508041623 | 7 | 263 | 8.0 | 11.3 | 0.00 | 0.00 | 0.00 | 67 | 1017.2 |
| 20260508040630 | 8 | 240 | 8.0 | 11.3 | 0.00 | 0.00 | 0.00 | 65 | 1017.3 |
| 20260508035644 | 8 | 211 | 6.4 | 9.7 | 0.00 | 0.00 | 0.00 | 68 | 1017.2 |
| 20260508034650 | 7 | 250 | 6.4 | 11.3 | 0.00 | 0.00 | 0.00 | 70 | 1017.3 |
| 20260508033620 | 7 | 257 | 8.0 | 11.3 | 0.00 | 0.00 | 0.00 | 70 | 1017.1 |
| 20260508032624 | 7 | 267 | 6.4 | 11.3 | 0.00 | 0.00 | 0.00 | 68 | 1017.0 |
| 20260508031612 | 8 | 263 | 9.7 | 12.9 | 0.00 | 0.00 | 0.00 | 63 | 1016.8 |
| 20260508030616 | 8 | 258 | 11.3 | 12.9 | 0.00 | 0.00 | 0.00 | 63 | 1016.7 |
| 20260508025643 | 9 | 268 | 8.0 | 11.3 | 0.00 | 0.00 | 0.00 | 61 | 1016.6 |
| 20260508024630 | 10 | 263 | 9.7 | 12.9 | 0.00 | 0.00 | 0.00 | 58 | 1016.5 |
| 20260508023632 | 10 | 263 | 9.7 | 11.3 | 0.00 | 0.00 | 0.00 | 58 | 1016.5 |
| 20260508022620 | 11 | 265 | 9.7 | 12.9 | 0.00 | 0.00 | 0.00 | 56 | 1016.4 |
| 20260508020648 | 13 | 259 | 8.0 | 11.3 | 0.00 | 0.00 | 0.00 | 48 | 1016.2 |
| 20260508015642 | 15 | 263 | 12.9 | 17.7 | 0.00 | 0.00 | 0.00 | 42 | 1016.2 |
| 20260508014627 | 15 | 273 | 11.3 | 20.9 | 0.00 | 0.00 | 0.00 | 42 | 1016.2 |
| 20260508013615 | 15 | 283 | 17.7 | 27.4 | 0.00 | 0.00 | 0.00 | 37 | 1016.2 |
| 20260508012619 | 16 | 286 | 20.9 | 27.4 | 0.00 | 0.00 | 0.00 | 36 | 1016.2 |
| 20260508011628 | 16 | 274 | 16.1 | 29.0 | 0.00 | 0.00 | 0.00 | 36 | 1016.1 |
| 20260508010632 | 16 | 273 | 19.3 | 27.4 | 0.00 | 0.00 | 0.00 | 36 | 1016.2 |
| 20260508005626 | 16 | 298 | 25.7 | 30.6 | 0.00 | 0.00 | 0.00 | 35 | 1016.2 |
| 20260508004636 | 16 | 302 | 24.1 | 37.0 | 0.00 | 0.00 | 0.00 | 34 | 1016.1 |
| 20260508003621 | 17 | 294 | 24.1 | 40.2 | 0.00 | 0.00 | 0.00 | 33 | 1016.1 |
| 20260508002631 | 17 | 305 | 20.9 | 37.0 | 0.00 | 0.00 | 0.00 | 33 | 1016.0 |
| 20260508001616 | 17 | 267 | 16.1 | 22.5 | 0.00 | 0.00 | 0.00 | 33 | 1016.0 |
| 20260508000614 | 16 | 257 | 14.5 | 27.4 | 0.00 | 0.00 | 0.00 | 34 | 1015.9 |
| 20260507235614 | 17 | 286 | 22.5 | 29.0 | 0.00 | 0.00 | 0.00 | 34 | 1016.0 |
| 20260507234623 | 17 | 310 | 19.3 | 32.2 | 0.00 | 0.00 | 0.00 | 31 | 1016.1 |
| 20260507233630 | 17 | 274 | 24.1 | 33.8 | 0.00 | 0.00 | 0.00 | 30 | 1016.3 |
| 20260507232615 | 17 | 265 | 17.7 | 35.4 | 0.00 | 0.00 | 0.00 | 32 | 1016.3 |
| 20260507231623 | 17 | 278 | 17.7 | 27.4 | 0.00 | 0.00 | 0.00 | 31 | 1016.2 |
| 20260507230635 | 16 | 273 | 20.9 | 33.8 | 0.00 | 0.00 | 0.00 | 32 | 1016.4 |
| 20260507225651 | 17 | 293 | 27.4 | 41.8 | 0.00 | 0.00 | 0.00 | 28 | 1016.3 |
| 20260507224621 | 16 | 304 | 22.5 | 37.0 | 0.00 | 0.00 | 0.00 | 32 | 1016.7 |
| 20260507223650 | 16 | 243 | 14.5 | 27.4 | 0.00 | 0.00 | 0.00 | 31 | 1016.8 |
| 20260507222616 | 16 | 261 | 17.7 | 30.6 | 0.00 | 0.00 | 0.00 | 34 | 1017.0 |
| 20260507221627 | 15 | 250 | 14.5 | 20.9 | 0.00 | 0.00 | 0.00 | 35 | 1017.2 |
| 20260507220613 | 15 | 262 | 16.1 | 29.0 | 0.00 | 0.00 | 0.00 | 37 | 1017.4 |
| 20260507215629 | 15 | 273 | 14.5 | 27.4 | 0.00 | 0.00 | 0.00 | 37 | 1017.5 |
| 20260507214616 | 15 | 224 | 11.3 | 22.5 | 0.00 | 0.00 | 0.00 | 37 | 1017.6 |
| 20260507213625 | 15 | 246 | 17.7 | 27.4 | 0.00 | 0.00 | 0.00 | 38 | 1017.8 |
| 20260507212636 | 15 | 250 | 16.1 | 22.5 | 0.00 | 0.00 | 0.00 | 37 | 1017.8 |
| 20260507211622 | 15 | 263 | 17.7 | 24.1 | 0.00 | 0.00 | 0.00 | 40 | 1017.9 |
| 20260507210631 | 15 | 266 | 20.9 | 27.4 | 0.00 | 0.00 | 0.00 | 37 | 1017.9 |
| 20260507205626 | 15 | 256 | 17.7 | 27.4 | 0.00 | 0.00 | 0.00 | 39 | 1017.9 |
| 20260507204615 | 15 | 249 | 17.7 | 25.7 | 0.00 | 0.00 | 0.00 | 37 | 1018.0 |
| 20260507203619 | 15 | 275 | 20.9 | 27.4 | 0.00 | 0.00 | 0.00 | 40 | 1018.0 |
| 20260507202625 | 16 | 254 | 17.7 | 29.0 | 0.00 | 0.00 | 0.00 | 37 | 1018.0 |
| 20260507201628 | 16 | 261 | 16.1 | 30.6 | 0.00 | 0.00 | 0.00 | 37 | 1018.0 |
| 20260507200621 | 16 | 275 | 22.5 | 32.2 | 0.00 | 0.00 | 0.00 | 37 | 1017.9 |
| 20260507195617 | 16 | 249 | 22.5 | 29.0 | 0.00 | 0.00 | 0.00 | 37 | 1017.9 |
| 20260507194643 | 16 | 271 | 25.7 | 33.8 | 0.00 | 0.00 | 0.00 | 37 | 1017.8 |
| 20260507193630 | 16 | 275 | 22.5 | 33.8 | 0.00 | 0.00 | 0.00 | 35 | 1017.7 |
| 20260507192619 | 16 | 265 | 19.3 | 25.7 | 0.00 | 0.00 | 0.00 | 38 | 1017.9 |
| 20260507191628 | 17 | 245 | 20.9 | 29.0 | 0.00 | 0.00 | 0.00 | 35 | 1017.8 |
| 20260507190615 | 17 | 286 | 17.7 | 35.4 | 0.00 | 0.00 | 0.00 | 39 | 1017.9 |
| 20260507185630 | 16 | 271 | 24.1 | 33.8 | 0.00 | 0.00 | 0.00 | 39 | 1018.0 |
| 20260507184617 | 16 | 275 | 20.9 | 35.4 | 0.00 | 0.00 | 0.00 | 35 | 1017.9 |
| 20260507183644 | 17 | 253 | 22.5 | 32.2 | 0.00 | 0.00 | 0.00 | 33 | 1018.0 |
| 20260507182650 | 17 | 258 | 20.9 | 33.8 | 0.00 | 0.00 | 0.00 | 35 | 1018.0 |
| 20260507181618 | 17 | 250 | 24.1 | 32.2 | 0.00 | 0.00 | 0.00 | 36 | 1018.1 |
| 20260507180624 | 17 | 269 | 25.7 | 35.4 | 0.00 | 0.00 | 0.00 | 36 | 1018.2 |
| 20260507175621 | 17 | 282 | 19.3 | 29.0 | 0.00 | 0.00 | 0.00 | 34 | 1018.2 |
| 20260507174631 | 16 | 264 | 20.9 | 33.8 | 0.00 | 0.00 | 0.00 | 34 | 1018.2 |
| 20260507173621 | 16 | 256 | 22.5 | 32.2 | 0.00 | 0.00 | 0.00 | 34 | 1018.3 |
| 20260507172646 | 16 | 298 | 16.1 | 27.4 | 0.00 | 0.00 | 0.00 | 37 | 1018.2 |
| 20260507171616 | 15 | 257 | 17.7 | 27.4 | 0.00 | 0.00 | 0.00 | 35 | 1018.2 |
| 20260507170631 | 15 | 223 | 17.7 | 30.6 | 0.00 | 0.00 | 0.00 | 34 | 1018.4 |
| 20260507165613 | 15 | 220 | 16.1 | 27.4 | 0.00 | 0.00 | 0.00 | 34 | 1018.4 |
| 20260507164621 | 15 | 225 | 17.7 | 29.0 | 0.00 | 0.00 | 0.00 | 33 | 1018.4 |
| 20260507163628 | 15 | 246 | 19.3 | 32.2 | 0.00 | 0.00 | 0.00 | 33 | 1018.6 |
| 20260507162643 | 14 | 255 | 9.7 | 20.9 | 0.00 | 0.00 | 0.00 | 39 | 1018.7 |
| 20260507161629 | 13 | 184 | 6.4 | 16.1 | 0.00 | 0.00 | 0.00 | 45 | 1018.7 |
| 20260507160616 | 12 | 192 | 4.8 | 8.0 | 0.00 | 0.00 | 0.00 | 44 | 1018.8 |
| 20260507155614 | 12 | 225 | 1.6 | 12.9 | 0.00 | 0.10 | 0.00 | 46 | 1019.0 |
| 20260507154622 | 12 | 163 | 8.0 | 11.3 | 0.00 | 0.10 | 0.00 | 45 | 1019.1 |
| 20260507153630 | 11 | 159 | 4.8 | 9.7 | 0.00 | 0.10 | 0.00 | 47 | 1019.2 |